Regional Weather Roundup
Issued by NWS Newport/Morehead, NC

Current Version | Previous Version | Graphics & Text | Print | Product List | Glossary On
Versions: 1 2 3 4 5 6 7 8 9 10 11 12 13 14 15 16 17 18 19 20 21 22 23 24 25 26 27 28 29 30 31 32 33 34 35 36 37 38 39 40 41 42 43 44 45 46 47 48 49 50
000 ASUS42 KMHX 250225 RWRMHX WEATHER ROUNDUP FOR EASTERN NORTH CAROLINA NATIONAL WEATHER SERVICE NEWPORT/MOREHEAD CITY NC 1000 PM EDT SUN SEP 24 2017 NOTE: "FAIR" INDICATES FEW OR NO CLOUDS BELOW 12,000 FEET WITH NO SIGNIFICANT WEATHER AND/OR OBSTRUCTIONS TO VISIBILITY NCZ015>017-031-032-045>047-102-103-250300- NORTH COAST CITY SKY/WX TMP DP RH WIND PRES REMARKS EDENTON CLOUDY 71 66 86 CALM 30.02S ELIZABETH CITY PTCLDY 71 68 90 NE7 30.02S KITTY HAWK MOCLDY 70 66 89 NE8 29.99F MANTEO MOCLDY 71 68 90 E14 30.00S $$ NCZ045>047-081-094-103-104-250300- CENTRAL COAST CITY SKY/WX TMP DP RH WIND PRES REMARKS FRISCO CLOUDY 73 71 93 NE9 29.96S $$ NCZ095-097-098-100-101-250300- SOUTHERN COAST CITY SKY/WX TMP DP RH WIND PRES REMARKS BEAUFORT PTCLDY 73 69 87 NE12 29.94F CEDAR ISLAND NOT AVBL JACKSONVILLE CLOUDY 75 67 76 NE12 29.95F PINEY ISLAND N/A N/A N/A N/A NE15 29.96R WILMINGTON CLOUDY 73 69 87 NE3 29.95S $$ NCZ011>013-027>030-043-044-078>080-089-090>093-098-250300- COASTAL PLAIN CITY SKY/WX TMP DP RH WIND PRES REMARKS AHOSKIE PTCLDY 66 61 82 CALM 30.02S CLINTON MOCLDY 73 67 80 CALM 29.99S ELIZABETHTOWN NOT AVBL GOLDSBORO PTCLDY 74 66 78 NE8 29.98R GREENVILLE PTCLDY 68 63 83 N7 30.02S HAVELOCK CLOUDY 74 67 78 NE12 29.97S KENANSVILLE FOG 68 66 94 CALM 29.98F VSB<1/4 KINSTON PTCLDY 73 63 68 NE8 30.00S NEW BERN PTCLDY 73 65 75 NE9 29.98S RICHLANDS CLOUDY 72 65 78 N6 29.97F ROCKY MOUNT PTCLDY 68 60 75 NE6 30.02R WASHINGTON PTCLDY 71 63 76 NE5 30.00S WHITEVILLE CLOUDY 74 68 81 CALM 29.96F $$ AMZ130-135-150-152-154-156-158-170-250-252-270-ANZ085-086-088-633-658-670-250300- MARINE OBSERVATIONS STATION/POSITION TIME TEMP WIND PRES WAVE SWELL AIR SEA DIR/SP/G HT/PER HT/PER (UTC) (F) (DEG/KT/KT) (MB) (FT/S) (FT/S) CHESAPEAKE LIGHT NOT AVBL 64 E VA BEACH 0150 71 70 70/ 10/ 12 1016.4 9/13 10/13 DUCK 0200 72 77 50/ 15/ 17 1015.7 2 E DUCK 0200 76 N/A 5/14 3/14 OREGON INLET 0200 72 77 30/ 15/ 20 1015.0 13E OREGON INLT 0148 75 N/A 7/11 7/11 HATTERAS CG 0200 73 78 50/ 12/ 18 1014.3 DIAMOND BUOY 0150 75 81 30/ 21/ 27 1013.2 11/15 10/15 CAPE LOOKOUT 0200 75 30/ 20/ 25 1013.4 BEAUFORT LAB 0200 74 77 30/ 10/ 16 1013.3 30 SE NEW RVR IN 0208 77 50/ 19/ 25 1012.7 30 SE NEW RVR IN NOT AVBL 27 SE WRIGHTSVLE 0208 78 80 70/ 21/ 29 1012.8 5 SE WRIGHTSVLE 0208 78 78 40/ 14/ 23 1013.4 225 S CAPE HAT 0150 80 80 20/ 33/ 43 1002.7 20/14 10/14 41 SE CHARLESTON 0210 80 81 30/ 17/ 21 1012.5 $$

USA.gov is the U.S. government's official web portal to all federal, state and local government web resources and services.